QPF
0.00 0.00 0.00 0.01 0.01 0.00 0.00 0.00 0.00 0.00 0.00 0.00 0.00 0.00 0.00 0.00 0.00 0.00 0.00 0.00 0.00 0.00 0.00 0.00 0.00 0.00 0.00 0.00 0.00 0.00 0.00 0.00 0.00 0.00 0.00 0.00 0.00 0.00 0.00 0.00 0.00 0.00 0.00 0.00 0.00 0.00 0.00
0.00 0.00 0.00 0.00 0.00 0.00 0.00 0.00 0.00 0.00 0.00 0.00 0.00 0.00 0.00 0.00 0.00 0.00 0.00 0.00 0.00 0.00 0.00 0.00 0.00 0.00 0.00 0.00 0.00 0.00 0.00 0.00 0.00 0.00 0.00 0.00 0.00 0.00 0.00 0.00 0.00 0.00 0.00 0.00 0.00 0.00 0.00
0.00 0.00 0.00 0.00 0.00 0.00 0.00 0.00 0.00 0.00 0.00 0.00 0.00 0.01 0.01 0.00 0.00 0.00 0.00 0.00 0.00 0.00 0.00 0.00 0.00 0.00 0.00 0.00 0.00 0.00 0.00 0.00 0.00 0.00 0.00 0.00 0.00 0.00 0.00 0.00 0.00 0.00 0.00 0.00 0.00 0.00 0.00
0.01 0.01 0.00 0.00 0.00 0.00 0.00 0.00 0.00 0.00 0.00 0.00 0.00 0.00 0.00 0.00 0.00 0.00 0.00 0.00 0.00 0.00 0.00 0.00 0.00 0.00 0.00 0.00 0.00 0.00 0.00 0.00 0.00 0.00 0.00 0.00 0.00 0.00 0.00 0.00 0.00 0.00 0.00 0.00 0.00 0.00 0.00
0.00 0.01 0.01 0.00 0.00 0.00 0.00 0.00 0.00 0.00 0.00 0.00 0.00 0.00 0.00 0.00 0.00 0.00 0.00 0.00 0.00 0.00 0.00 0.00 0.00 0.00 0.00 0.00 0.00 0.00 0.00 0.00 0.00 0.00 0.00 0.00 0.00 0.00 0.00 0.00 0.00 0.00 0.00 0.00 0.00 0.00 0.00
0.00 0.02 0.02 0.01 0.01 0.00 0.01 0.01 0.00 0.00 0.00 0.00 0.00 0.00 0.00 0.00 0.00 0.00 0.00 0.00 0.00 0.00 0.00 0.00 0.00 0.00 0.00 0.00 0.00 0.00 0.00 0.00 0.00 0.00 0.00 0.00 0.00 0.00 0.00 0.00 0.00 0.00 0.00 0.00 0.00 0.00 0.00
0.03 0.03 0.03 0.02 0.02 0.01 0.01 0.03 0.00 0.00 0.00 0.00 0.00 0.00 0.00 0.00 0.00 0.00 0.00 0.00 0.00 0.00 0.00 0.00 0.00 0.00 0.00 0.00 0.00 0.00 0.00 0.00 0.00 0.00 0.00 0.00 0.00 0.00 0.00 0.00 0.00 0.00 0.00 0.00 0.00 0.00 0.00
0.03 0.03 0.04 0.03 0.02 0.03 0.03 0.04 0.03 0.00 0.00 0.00 0.00 0.00 0.00 0.00 0.00 0.00 0.00 0.00 0.00 0.00 0.00 0.00 0.00 0.00 0.00 0.00 0.00 0.00 0.00 0.00 0.00 0.00 0.00 0.00 0.00 0.00 0.00 0.00 0.00 0.00 0.00 0.00 0.00 0.00 0.00
0.01 0.01 0.01 0.01 0.01 0.01 0.02 0.01 0.01 0.01 0.00 0.00 0.00 0.00 0.00 0.00 0.00 0.00 0.00 0.00 0.00 0.00 0.00 0.00 0.00 0.00 0.00 0.00 0.00 0.00 0.00 0.00 0.00 0.00 0.00 0.00 0.00 0.00 0.00 0.00 0.00 0.00 0.00 0.00 0.00 0.00 0.00
0.00 0.00 0.00 0.00 0.00 0.00 0.00 0.00 0.00 0.00 0.01 0.00 0.00 0.00 0.00 0.00 0.00 0.00 0.00 0.00 0.00 0.00 0.00 0.00 0.00 0.00 0.00 0.00 0.00 0.00 0.00 0.00 0.00 0.00 0.00 0.00 0.00 0.00 0.00 0.00 0.00 0.00 0.00 0.00 0.00 0.00 0.00
0.00 0.00 0.00 0.00 0.00 0.00 0.00 0.00 0.00 0.00 0.00 0.02 0.00 0.00 0.00 0.00 0.00 0.00 0.00 0.00 0.00 0.00 0.00 0.00 0.00 0.00 0.00 0.00 0.00 0.00 0.00 0.00 0.00 0.00 0.00 0.00 0.00 0.00 0.00 0.00 0.00 0.00 0.00 0.00 0.00 0.00 0.00
0.00 0.00 0.00 0.00 0.00 0.00 0.00 0.00 0.00 0.00 0.00 0.00 0.01 0.00 0.00 0.00 0.00 0.00 0.00 0.00 0.00 0.00 0.00 0.00 0.00 0.00 0.00 0.00 0.00 0.00 0.00 0.00 0.00 0.00 0.00 0.00 0.00 0.00 0.00 0.00 0.00 0.00 0.00 0.00 0.00 0.00 0.00
0.00 0.00 0.00 0.00 0.00 0.00 0.00 0.00 0.00 0.00 0.00 0.00 0.00 0.00 0.00 0.00 0.00 0.00 0.00 0.00 0.00 0.00 0.00 0.00 0.00 0.00 0.00 0.00 0.00 0.00 0.00 0.00 0.00 0.00 0.00 0.00 0.00 0.00 0.00 0.00 0.00 0.00 0.00 0.00 0.00 0.00 0.00
0.00 0.00 0.00 0.00 0.00 0.00 0.00 0.00 0.00 0.00 0.00 0.00 0.00 0.01 0.00 0.00 0.00 0.00 0.00 0.00 0.00 0.00 0.00 0.00 0.00 0.00 0.00 0.00 0.00 0.00 0.00 0.00 0.00 0.00 0.00 0.00 0.00 0.00 0.00 0.00 0.00 0.00 0.00 0.00 0.00 0.00 0.00
0.00 0.00 0.00 0.00 0.00 0.00 0.00 0.00 0.00 0.00 0.00 0.00 0.00 0.01 0.00 0.00 0.00 0.00 0.00 0.00 0.00 0.00 0.00 0.00 0.00 0.00 0.00 0.00 0.00 0.00 0.00 0.00 0.00 0.00 0.00 0.00 0.00 0.00 0.00 0.00 0.00 0.00 0.00 0.00 0.00 0.00 0.00
0.00 0.00 0.00 0.00 0.00 0.00 0.00 0.00 0.00 0.00 0.00 0.00 0.00 0.00 0.00 0.00 0.00 0.00 0.00 0.00 0.00 0.00 0.00 0.00 0.00 0.00 0.00 0.00 0.00 0.00 0.00 0.00 0.00 0.00 0.00 0.00 0.00 0.00 0.00 0.00 0.00 0.00 0.00 0.00 0.00 0.00 0.00
0.00 0.00 0.00 0.00 0.00 0.00 0.00 0.00 0.00 0.00 0.00 0.00 0.00 0.00 0.00 0.00 0.01 0.00 0.00 0.00 0.00 0.00 0.00 0.00 0.00 0.00 0.00 0.00 0.00 0.00 0.00 0.00 0.00 0.00 0.00 0.00 0.00 0.00 0.00 0.00 0.00 0.00 0.00 0.00 0.00 0.00 0.00
0.00 0.00 0.00 0.00 0.00 0.00 0.00 0.00 0.00 0.00 0.00 0.00 0.00 0.00 0.00 0.00 0.01 0.00 0.00 0.00 0.00 0.00 0.00 0.00 0.00 0.00 0.00 0.00 0.00 0.00 0.00 0.00 0.00 0.00 0.00 0.00 0.00 0.00 0.00 0.00 0.00 0.00 0.00 0.00 0.00 0.00 0.00
0.00 0.00 0.00 0.00 0.00 0.00 0.00 0.00 0.00 0.00 0.00 0.00 0.00 0.00 0.00 0.00 0.00 0.00 0.00 0.00 0.00 0.00 0.00 0.00 0.00 0.00 0.00 0.00 0.00 0.00 0.00 0.00 0.00 0.00 0.00 0.00 0.01 0.01 0.00 0.00 0.00 0.00 0.00 0.00 0.00 0.00 0.00
0.00 0.00 0.00 0.00 0.00 0.00 0.00 0.00 0.00 0.00 0.00 0.00 0.00 0.00 0.00 0.00 0.00 0.00 0.00 0.00 0.00 0.00 0.00 0.00 0.00 0.00 0.00 0.00 0.00 0.00 0.00 0.00 0.00 0.00 0.00 0.00 0.00 0.02 0.01 0.00 0.00 0.00 0.00 0.00 0.00 0.00 0.00
0.00 0.00 0.00 0.00 0.00 0.00 0.00 0.00 0.00 0.00 0.00 0.00 0.00 0.00 0.00 0.00 0.00 0.00 0.00 0.00 0.00 0.00 0.00 0.00 0.00 0.00 0.00 0.00 0.00 0.00 0.00 0.00 0.00 0.00 0.00 0.00 0.00 0.00 0.00 0.00 0.00 0.00 0.00 0.00 0.00 0.00 0.00
0.00 0.00 0.00 0.00 0.00 0.00 0.00 0.00 0.00 0.00 0.00 0.00 0.00 0.00 0.00 0.00 0.00 0.00 0.00 0.00 0.00 0.00 0.00 0.00 0.00 0.00 0.00 0.01 0.00 0.00 0.00 0.00 0.00 0.00 0.00 0.00 0.00 0.00 0.00 0.00 0.00 0.00 0.00 0.00 0.00 0.00 0.00
0.00 0.00 0.00 0.00 0.00 0.00 0.00 0.00 0.00 0.00 0.00 0.00 0.00 0.00 0.00 0.00 0.00 0.00 0.00 0.00 0.00 0.00 0.00 0.00 0.00 0.00 0.00 0.00 0.00 0.00 0.00 0.00 0.00 0.00 0.01 0.00 0.00 0.00 0.00 0.00 0.00 0.00 0.00 0.00 0.00 0.00 0.00
0.00 0.00 0.00 0.00 0.00 0.00 0.00 0.00 0.00 0.01 0.00 0.00 0.00 0.00 0.00 0.00 0.00 0.00 0.00 0.00 0.00 0.00 0.00 0.00 0.00 0.00 0.00 0.00 0.00 0.01 0.00 0.00 0.01 0.00 0.00 0.01 0.00 0.00 0.00 0.01 0.00 0.00 0.00 0.00 0.00 0.00 0.00
0.01 0.00 0.00 0.00 0.00 0.00 0.00 0.00 0.00 0.01 0.01 0.00 0.00 0.00 0.00 0.00 0.00 0.00 0.00 0.00 0.00 0.00 0.00 0.00 0.00 0.00 0.00 0.00 0.00 0.01 0.01 0.01 0.01 0.00 0.00 0.00 0.01 0.01 0.01 0.00 0.00 0.00 0.00 0.00 0.00 0.00 0.00
0.02 0.01 0.00 0.00 0.00 0.00 0.00 0.00 0.00 0.00 0.01 0.00 0.00 0.00 0.00 0.00 0.00 0.00 0.00 0.00 0.00 0.00 0.00 0.00 0.00 0.00 0.00 0.00 0.00 0.01 0.01 0.02 0.01 0.00 0.00 0.01 0.01 0.01 0.00 0.00 0.00 0.00 0.00 0.00 0.00 0.00 0.00
0.01 0.01 0.01 0.01 0.00 0.00 0.00 0.00 0.00 0.00 0.00 0.00 0.00 0.00 0.00 0.00 0.00 0.00 0.00 0.00 0.00 0.00 0.00 0.00 0.00 0.00 0.00 0.00 0.00 0.00 0.01 0.01 0.02 0.01 0.00 0.01 0.01 0.01 0.00 0.00 0.00 0.00 0.00 0.00 0.00 0.00 0.00
0.02 0.01 0.01 0.01 0.00 0.00 0.00 0.00 0.00 0.00 0.00 0.00 0.00 0.00 0.01 0.00 0.00 0.00 0.00 0.00 0.00 0.00 0.00 0.00 0.00 0.00 0.00 0.01 0.01 0.01 0.01 0.01 0.01 0.00 0.00 0.00 0.00 0.00 0.00 0.00 0.00 0.00 0.00 0.00 0.00 0.00 0.00
0.04 0.03 0.02 0.02 0.02 0.01 0.00 0.00 0.00 0.00 0.00 0.01 0.00 0.00 0.01 0.01 0.00 0.00 0.00 0.00 0.00 0.00 0.00 0.00 0.00 0.00 0.00 0.01 0.02 0.02 0.01 0.00 0.00 0.00 0.00 0.00 0.00 0.00 0.00 0.00 0.00 0.00 0.00 0.00 0.00 0.00 0.00
MSLP
1011.20 1011.94 1012.37 1012.95 1013.39 1013.85 1014.21 1014.56 1014.98 1015.34 1015.44 1015.56 1016.08 1016.32 1016.29 1016.46 1016.71 1016.96 1017.13 1017.47 1017.69 1017.79 1017.79 1017.77 1017.53 1017.08 1016.40 1016.26 1014.61 1012.97 1012.81 1012.83 1012.87 1012.92 1013.03 1012.99 1012.98 1013.08 1013.04 1013.16 1012.92 1012.66 1012.00 1011.64 1010.81 1010.51 1010.18
1010.39 1011.16 1011.86 1012.35 1012.91 1013.43 1013.87 1014.31 1014.49 1014.80 1015.08 1014.88 1015.48 1015.83 1015.98 1016.23 1016.35 1016.63 1017.06 1017.15 1017.53 1017.65 1017.60 1017.61 1017.25 1017.12 1016.99 1015.95 1013.08 1013.02 1013.16 1012.95 1012.96 1013.18 1013.34 1013.22 1013.10 1013.21 1013.25 1012.99 1012.98 1012.69 1012.38 1011.73 1010.95 1010.65 1010.48
1009.90 1010.61 1011.35 1011.99 1012.51 1012.96 1013.85 1014.20 1014.36 1014.35 1014.37 1014.70 1014.84 1015.27 1015.45 1015.50 1015.94 1016.42 1016.73 1017.01 1017.32 1017.63 1017.72 1017.58 1017.32 1017.25 1017.11 1014.82 1012.86 1012.86 1013.12 1012.98 1013.01 1013.24 1013.49 1013.18 1013.11 1013.27 1013.33 1013.02 1012.84 1012.62 1012.60 1011.80 1011.19 1010.73 1010.62
1010.74 1010.63 1010.85 1011.72 1012.61 1012.84 1013.55 1013.81 1014.24 1013.88 1014.16 1014.40 1014.62 1014.89 1015.15 1015.49 1015.73 1016.39 1016.64 1016.97 1017.21 1017.52 1017.71 1017.66 1017.43 1017.31 1016.00 1013.13 1012.87 1012.93 1012.90 1012.67 1012.51 1012.72 1013.15 1013.05 1013.12 1013.30 1013.26 1013.17 1013.02 1013.17 1012.93 1012.27 1011.27 1010.90 1010.63
1010.97 1011.52 1011.66 1012.53 1012.66 1012.84 1013.21 1013.67 1013.88 1014.07 1013.82 1014.47 1014.80 1015.22 1015.73 1016.10 1016.19 1016.50 1016.78 1017.06 1017.07 1017.25 1017.54 1017.72 1017.70 1017.25 1014.99 1012.70 1012.63 1012.03 1012.28 1012.46 1012.11 1012.31 1012.72 1012.84 1013.12 1013.70 1013.61 1013.81 1013.88 1013.94 1013.36 1012.86 1012.08 1011.14 1011.05
1010.83 1011.63 1011.45 1012.41 1012.88 1013.23 1013.44 1013.72 1013.79 1014.00 1014.13 1014.12 1014.80 1015.17 1016.02 1016.30 1016.64 1016.84 1017.09 1017.30 1017.10 1017.48 1017.52 1017.52 1017.52 1017.26 1014.00 1012.32 1011.59 1011.55 1012.10 1012.16 1011.95 1012.32 1012.92 1013.24 1013.97 1014.26 1014.51 1014.39 1013.95 1013.96 1013.79 1013.12 1012.67 1011.76 1011.73
1010.65 1010.97 1011.11 1012.14 1012.55 1013.23 1013.40 1013.93 1013.89 1013.89 1014.67 1014.72 1014.95 1015.21 1015.87 1016.07 1016.62 1016.75 1017.17 1017.35 1017.68 1017.88 1017.46 1015.86 1015.34 1014.17 1012.64 1011.92 1011.71 1011.65 1011.56 1011.89 1011.84 1012.63 1013.40 1013.79 1014.72 1014.33 1013.39 1013.57 1013.62 1013.77 1013.73 1013.30 1012.83 1012.13 1012.07
1010.19 1010.70 1011.13 1011.71 1012.29 1012.71 1013.00 1013.58 1014.04 1014.11 1014.61 1015.08 1015.45 1015.58 1015.77 1016.05 1016.73 1016.60 1017.12 1017.43 1017.33 1018.05 1016.58 1014.80 1014.34 1014.01 1012.80 1012.23 1012.46 1011.89 1011.57 1012.01 1012.23 1012.88 1013.38 1014.15 1014.00 1013.36 1013.38 1013.68 1013.68 1013.84 1013.87 1013.44 1012.97 1012.50 1012.34
1010.26 1010.54 1011.23 1011.76 1012.24 1012.55 1012.74 1013.28 1013.71 1014.13 1014.52 1014.97 1015.54 1015.69 1015.86 1016.07 1016.54 1016.67 1017.21 1017.24 1017.02 1017.57 1017.14 1014.03 1013.38 1012.41 1011.98 1012.22 1011.84 1011.46 1011.58 1011.53 1012.10 1013.14 1013.28 1012.90 1012.46 1012.59 1013.02 1013.34 1013.81 1013.48 1013.31 1013.09 1012.96 1012.78 1012.28
1010.34 1010.75 1011.14 1011.76 1012.42 1012.76 1013.15 1013.43 1013.48 1013.79 1014.39 1014.81 1015.43 1015.85 1016.24 1016.60 1016.84 1017.07 1017.12 1016.59 1016.62 1017.54 1017.29 1013.78 1012.76 1011.27 1011.23 1011.22 1011.23 1010.53 1010.23 1011.13 1012.02 1012.53 1013.40 1012.95 1012.17 1012.47 1012.82 1012.88 1013.19 1012.90 1012.46 1012.57 1013.03 1013.41 1013.04
1010.52 1011.14 1011.48 1011.91 1012.45 1013.17 1013.55 1013.61 1013.61 1013.69 1014.01 1014.62 1015.26 1016.01 1016.41 1016.41 1016.64 1017.01 1016.74 1016.51 1016.80 1017.24 1016.25 1012.40 1011.61 1011.02 1011.10 1010.90 1010.34 1010.51 1010.40 1010.70 1010.95 1012.03 1013.00 1011.79 1011.67 1011.76 1011.89 1011.56 1012.14 1011.85 1011.86 1012.26 1012.88 1013.39 1013.33
1010.96 1011.37 1012.04 1012.35 1012.58 1013.04 1013.58 1013.86 1013.98 1014.08 1014.04 1014.55 1015.07 1015.77 1016.24 1016.54 1017.01 1016.72 1016.50 1016.72 1016.98 1017.22 1014.57 1011.81 1011.43 1011.36 1011.42 1010.90 1010.56 1010.86 1011.13 1011.19 1011.09 1011.61 1012.26 1012.16 1011.65 1011.35 1010.91 1011.20 1011.57 1011.59 1011.90 1012.25 1013.00 1013.58 1013.20
1011.27 1011.57 1012.20 1012.66 1013.05 1013.15 1013.49 1013.99 1014.36 1014.49 1014.39 1014.30 1014.70 1015.35 1016.06 1016.38 1016.83 1016.52 1016.47 1017.00 1017.86 1016.46 1013.44 1012.73 1011.96 1011.48 1011.34 1011.44 1010.89 1010.86 1011.15 1011.75 1011.75 1012.06 1012.23 1012.33 1011.37 1011.35 1011.02 1011.08 1011.27 1011.65 1012.03 1012.81 1013.31 1013.51 1011.59
1011.38 1011.84 1012.29 1012.90 1013.30 1013.49 1013.71 1013.95 1014.44 1014.69 1014.55 1014.48 1014.43 1015.41 1015.72 1016.32 1016.26 1016.40 1016.84 1017.84 1017.61 1015.33 1014.31 1013.03 1012.51 1011.60 1011.84 1011.66 1011.44 1011.25 1011.53 1011.98 1012.38 1012.46 1012.40 1012.11 1010.94 1010.48 1010.11 1010.10 1009.77 1010.16 1011.20 1012.07 1012.15 1012.56 1011.41
1011.33 1012.05 1012.58 1013.00 1013.43 1013.67 1013.87 1014.16 1014.35 1014.65 1014.77 1014.56 1014.44 1015.39 1015.77 1016.40 1016.51 1016.49 1017.35 1017.61 1016.28 1015.52 1014.84 1014.18 1012.97 1012.64 1012.59 1012.27 1012.11 1011.83 1012.21 1012.30 1012.23 1012.40 1012.70 1012.02 1011.16 1009.97 1009.92 1009.69 1010.23 1009.93 1010.33 1010.25 1011.63 1012.17 1012.61
1011.45 1012.17 1012.75 1013.24 1013.71 1013.91 1014.13 1014.29 1014.55 1014.72 1014.87 1015.01 1015.42 1016.15 1016.91 1016.74 1016.44 1017.09 1017.57 1016.94 1016.39 1015.81 1015.37 1014.61 1014.14 1013.88 1013.92 1013.90 1013.29 1013.15 1012.82 1013.18 1013.00 1012.84 1012.43 1012.29 1011.66 1010.42 1009.89 1009.64 1009.58 1009.84 1009.91 1010.96 1012.26 1012.27 1011.64
1011.68 1012.43 1012.93 1013.43 1013.87 1014.18 1014.34 1014.42 1014.67 1014.83 1015.12 1015.33 1016.28 1017.08 1017.60 1017.01 1016.88 1017.51 1017.68 1017.30 1016.93 1016.08 1015.94 1015.64 1015.24 1014.83 1014.82 1015.09 1014.67 1014.34 1014.03 1014.34 1013.98 1013.54 1013.39 1013.47 1012.94 1010.88 1011.05 1010.59 1010.13 1010.22 1010.22 1010.60 1011.23 1012.05 1011.11
1011.95 1012.58 1013.05 1013.57 1013.96 1014.31 1014.43 1014.61 1014.78 1015.08 1015.43 1015.73 1017.10 1018.23 1017.61 1017.03 1017.80 1017.81 1018.00 1017.84 1017.58 1016.56 1016.02 1016.05 1015.96 1015.82 1015.80 1015.76 1015.46 1015.32 1014.83 1014.77 1014.76 1014.45 1014.65 1014.88 1014.39 1013.46 1012.08 1010.97 1010.37 1010.27 1010.42 1011.08 1011.68 1011.95 1011.37
1012.11 1012.68 1013.12 1013.64 1014.02 1014.34 1014.58 1014.77 1014.82 1015.25 1015.53 1016.36 1018.11 1018.83 1017.89 1017.60 1018.25 1018.50 1018.42 1018.33 1017.75 1017.45 1016.96 1016.65 1016.49 1016.52 1016.28 1016.26 1016.39 1015.90 1015.36 1015.27 1015.03 1015.11 1015.54 1015.32 1015.23 1014.80 1012.65 1011.92 1012.07 1011.90 1012.15 1012.17 1012.30 1012.25 1011.88
1012.24 1012.74 1013.26 1013.72 1014.09 1014.46 1014.65 1014.95 1015.19 1015.54 1015.94 1016.73 1018.69 1019.73 1019.27 1018.81 1018.98 1018.78 1019.00 1018.65 1018.27 1017.75 1017.36 1017.01 1016.91 1017.17 1017.17 1017.09 1016.96 1016.48 1016.02 1015.57 1015.55 1015.62 1015.89 1015.80 1015.96 1016.44 1016.05 1015.21 1015.12 1014.50 1013.99 1013.80 1013.36 1013.08 1011.78
1012.20 1012.85 1013.32 1013.87 1014.18 1014.46 1014.84 1015.16 1015.48 1015.88 1016.32 1017.18 1019.18 1020.04 1019.55 1019.78 1019.70 1019.55 1019.51 1019.14 1018.65 1018.27 1017.85 1017.55 1017.30 1017.29 1017.68 1017.58 1017.18 1016.65 1016.39 1016.12 1015.88 1015.86 1016.06 1016.43 1016.33 1016.54 1016.09 1015.75 1015.40 1014.76 1014.21 1013.93 1013.88 1012.87 1012.36
1012.27 1012.79 1013.32 1013.74 1014.17 1014.63 1014.98 1015.37 1015.77 1016.12 1016.56 1017.81 1019.35 1019.91 1020.13 1020.12 1019.80 1019.87 1019.94 1019.34 1018.92 1018.72 1018.45 1018.07 1017.68 1017.82 1017.96 1017.89 1017.73 1017.47 1017.27 1016.84 1016.52 1016.35 1016.29 1016.63 1016.44 1016.42 1016.07 1015.42 1015.26 1013.97 1013.01 1012.35 1013.05 1012.32 1011.38
1012.08 1012.64 1013.30 1013.75 1014.30 1014.87 1015.25 1015.59 1015.98 1016.27 1016.66 1018.10 1019.36 1019.45 1019.53 1020.36 1020.22 1020.27 1019.72 1019.20 1019.05 1018.96 1018.70 1018.30 1018.08 1018.22 1018.09 1018.24 1018.24 1017.99 1017.87 1017.06 1016.49 1016.49 1016.44 1016.41 1016.45 1016.22 1015.41 1014.50 1014.18 1013.62 1011.49 1011.09 1011.12 1010.89 1010.75
1011.95 1012.61 1013.29 1013.82 1014.37 1014.90 1015.31 1015.64 1015.90 1016.17 1016.78 1017.89 1018.81 1019.30 1020.18 1020.65 1020.20 1019.63 1019.28 1019.33 1019.28 1019.15 1019.21 1018.82 1018.89 1018.90 1018.65 1018.29 1018.00 1017.30 1016.57 1016.12 1015.84 1015.21 1015.59 1015.32 1015.57 1015.52 1014.88 1014.66 1013.48 1011.04 1010.09 1009.89 1010.13 1009.67 1009.45
1012.00 1012.58 1013.17 1013.70 1014.25 1014.77 1015.17 1015.46 1015.82 1016.20 1016.82 1017.71 1018.45 1019.15 1020.13 1020.64 1019.80 1019.34 1019.44 1019.53 1019.47 1019.46 1019.54 1019.20 1019.13 1018.91 1018.96 1019.19 1018.78 1017.53 1016.38 1015.09 1013.87 1013.65 1013.77 1014.03 1014.48 1014.57 1014.45 1013.83 1012.53 1010.77 1009.82 1009.80 1009.81 1008.82 1008.49
1012.02 1012.54 1013.03 1013.50 1014.08 1014.63 1015.03 1015.39 1015.75 1016.14 1016.61 1017.30 1018.01 1018.31 1019.32 1020.02 1019.30 1018.98 1019.21 1019.29 1019.40 1019.43 1019.47 1018.99 1018.78 1018.25 1018.79 1019.19 1019.04 1018.20 1016.82 1014.81 1013.60 1012.60 1011.98 1013.05 1013.27 1014.00 1013.82 1013.17 1012.12 1010.42 1009.43 1009.09 1009.30 1008.70 1007.77
1011.91 1012.44 1012.88 1013.43 1013.95 1014.45 1014.87 1015.30 1015.64 1016.01 1016.33 1017.12 1017.40 1017.82 1018.70 1019.29 1018.69 1018.49 1018.62 1018.75 1018.96 1019.31 1019.46 1019.30 1018.81 1018.43 1018.37 1018.99 1018.65 1017.77 1016.20 1014.74 1013.71 1012.66 1012.20 1011.97 1012.11 1012.03 1012.52 1012.27 1011.11 1009.66 1009.04 1009.22 1009.39 1008.72 1007.61
1011.77 1012.36 1012.83 1013.28 1013.68 1014.16 1014.63 1015.00 1015.30 1015.59 1015.94 1016.73 1017.13 1017.43 1018.24 1018.20 1017.83 1017.63 1017.65 1018.02 1018.28 1018.60 1019.15 1019.30 1019.22 1018.57 1018.69 1018.56 1017.89 1017.05 1015.55 1013.91 1013.01 1012.16 1011.52 1011.17 1011.36 1011.78 1011.90 1011.86 1010.87 1008.78 1009.12 1009.11 1008.33 1007.98 1007.82
1011.59 1012.00 1012.64 1012.94 1013.36 1013.80 1014.21 1014.55 1014.88 1015.21 1015.61 1016.11 1017.05 1017.34 1017.55 1018.02 1017.13 1016.92 1016.94 1017.00 1017.49 1017.58 1018.21 1018.39 1018.39 1018.19 1018.09 1018.09 1017.55 1017.07 1015.36 1013.37 1012.09 1011.23 1010.91 1010.77 1010.33 1010.68 1010.62 1009.62 1008.78 1008.60 1008.23 1007.89 1008.05 1008.41 1008.22
Thickness
5618 5615 5614 5613 5614 5615 5616 5619 5620 5621 5624 5626 5625 5627 5631 5634 5635 5636 5637 5638 5639 5641 5645 5647 5652 5658 5664 5661 5671 5694 5697 5697 5698 5698 5696 5696 5694 5691 5687 5687 5691 5693 5702 5707 5710 5712 5718
5613 5610 5607 5605 5607 5606 5606 5606 5610 5612 5613 5618 5617 5619 5620 5621 5625 5626 5626 5629 5628 5631 5633 5636 5642 5646 5649 5647 5681 5684 5684 5687 5688 5685 5683 5684 5684 5685 5680 5682 5683 5688 5690 5693 5704 5705 5710
5604 5602 5600 5597 5599 5598 5595 5596 5598 5602 5606 5606 5609 5608 5610 5613 5616 5614 5617 5618 5618 5618 5620 5623 5628 5631 5634 5648 5671 5676 5674 5676 5677 5676 5670 5676 5679 5674 5675 5672 5681 5683 5678 5685 5696 5702 5700
5581 5587 5590 5588 5585 5586 5585 5587 5587 5594 5596 5598 5598 5599 5597 5600 5603 5602 5604 5605 5606 5604 5606 5609 5614 5618 5628 5657 5661 5663 5665 5668 5670 5670 5667 5669 5670 5667 5667 5669 5667 5667 5669 5663 5687 5690 5694
5564 5564 5567 5566 5571 5575 5576 5576 5578 5580 5586 5585 5585 5585 5584 5583 5585 5587 5589 5589 5590 5591 5593 5595 5600 5606 5626 5651 5652 5660 5658 5656 5663 5661 5659 5662 5659 5650 5655 5646 5640 5644 5641 5650 5662 5679 5681
5548 5547 5554 5551 5557 5560 5563 5563 5566 5567 5570 5574 5571 5573 5569 5571 5571 5574 5576 5576 5579 5578 5582 5586 5592 5597 5624 5639 5649 5652 5649 5650 5652 5650 5644 5642 5630 5626 5627 5630 5628 5629 5626 5635 5641 5665 5661
5532 5536 5541 5540 5543 5546 5551 5549 5554 5557 5554 5556 5557 5559 5559 5562 5562 5565 5564 5565 5570 5569 5574 5596 5603 5616 5627 5634 5639 5641 5644 5640 5642 5635 5621 5624 5612 5613 5634 5632 5635 5635 5629 5630 5638 5651 5652
5520 5522 5524 5529 5532 5534 5539 5536 5537 5544 5544 5542 5543 5544 5548 5550 5549 5555 5554 5554 5559 5554 5571 5594 5600 5604 5615 5619 5617 5625 5633 5627 5625 5617 5616 5611 5606 5626 5629 5625 5622 5620 5618 5621 5628 5641 5642
5502 5508 5510 5513 5518 5521 5526 5527 5525 5525 5529 5527 5528 5532 5535 5537 5537 5541 5541 5544 5548 5546 5551 5591 5595 5607 5611 5608 5612 5620 5620 5622 5618 5606 5608 5611 5624 5625 5621 5619 5612 5613 5614 5619 5621 5628 5631
5485 5490 5496 5498 5501 5503 5506 5511 5513 5516 5514 5515 5517 5516 5516 5517 5525 5526 5527 5536 5539 5533 5528 5580 5585 5602 5606 5607 5608 5623 5625 5616 5608 5605 5600 5602 5619 5617 5610 5610 5610 5606 5620 5620 5613 5607 5597
5471 5472 5477 5482 5484 5485 5488 5493 5497 5503 5504 5504 5503 5501 5499 5505 5510 5511 5518 5522 5525 5523 5522 5579 5582 5595 5598 5599 5608 5606 5613 5609 5606 5598 5595 5608 5609 5608 5608 5618 5611 5611 5618 5611 5603 5593 5594
5451 5455 5457 5463 5469 5472 5473 5476 5481 5485 5489 5489 5489 5489 5490 5493 5493 5500 5505 5507 5513 5498 5511 5566 5572 5573 5575 5583 5591 5592 5589 5594 5599 5593 5593 5597 5608 5605 5608 5607 5603 5608 5605 5603 5589 5579 5558
5434 5440 5443 5447 5451 5457 5460 5461 5463 5468 5475 5481 5482 5480 5478 5479 5480 5486 5491 5493 5476 5487 5545 5546 5556 5560 5562 5563 5570 5578 5574 5574 5572 5564 5568 5580 5594 5596 5602 5595 5594 5588 5583 5555 5557 5548 5578
5419 5423 5428 5431 5435 5440 5445 5449 5449 5453 5461 5467 5471 5466 5468 5468 5473 5473 5474 5465 5461 5510 5515 5533 5540 5549 5548 5554 5554 5557 5554 5554 5557 5558 5555 5556 5576 5585 5594 5591 5589 5590 5578 5564 5563 5557 5576
5406 5408 5412 5416 5419 5425 5430 5434 5439 5442 5447 5454 5460 5456 5458 5457 5457 5461 5455 5459 5473 5492 5507 5507 5523 5528 5533 5535 5543 5546 5541 5540 5546 5545 5541 5545 5555 5582 5583 5584 5578 5578 5564 5588 5557 5555 5535
5393 5395 5397 5400 5403 5409 5414 5420 5425 5429 5433 5438 5439 5439 5438 5443 5444 5443 5440 5455 5470 5477 5483 5495 5499 5502 5506 5505 5517 5519 5534 5528 5527 5533 5539 5540 5536 5566 5571 5575 5579 5567 5573 5546 5527 5534 5536
5380 5381 5383 5386 5390 5395 5400 5407 5412 5416 5420 5425 5420 5416 5421 5429 5431 5425 5430 5436 5451 5464 5468 5471 5477 5482 5486 5485 5490 5500 5511 5504 5509 5515 5519 5512 5519 5552 5547 5551 5557 5555 5551 5554 5543 5527 5533
5368 5369 5372 5375 5378 5382 5388 5394 5398 5402 5406 5409 5398 5384 5410 5419 5417 5409 5421 5425 5438 5449 5457 5459 5463 5465 5469 5474 5478 5485 5495 5487 5490 5498 5495 5491 5490 5495 5523 5546 5550 5550 5543 5538 5521 5520 5516
5357 5359 5363 5365 5368 5372 5377 5381 5387 5390 5394 5391 5376 5378 5397 5404 5404 5399 5409 5417 5426 5428 5438 5440 5442 5444 5458 5460 5456 5464 5475 5473 5478 5477 5475 5479 5470 5479 5509 5523 5512 5513 5514 5511 5510 5509 5502
5350 5352 5354 5357 5360 5363 5368 5371 5374 5377 5380 5379 5365 5361 5374 5384 5383 5387 5390 5400 5407 5414 5419 5426 5430 5427 5433 5433 5438 5444 5454 5462 5464 5463 5462 5463 5464 5457 5460 5477 5463 5467 5478 5483 5478 5484 5503
5344 5344 5347 5348 5351 5355 5357 5361 5364 5366 5368 5365 5348 5342 5362 5363 5370 5379 5381 5387 5392 5398 5405 5409 5413 5418 5413 5412 5423 5432 5441 5443 5447 5451 5447 5442 5436 5448 5447 5446 5450 5455 5467 5469 5468 5479 5473
5339 5340 5341 5343 5344 5347 5349 5351 5352 5355 5357 5348 5339 5343 5349 5350 5361 5366 5370 5370 5378 5380 5386 5389 5400 5400 5403 5404 5412 5414 5417 5424 5423 5429 5434 5431 5428 5432 5421 5444 5441 5457 5476 5479 5466 5474 5477
5336 5337 5336 5337 5337 5337 5338 5342 5344 5347 5350 5338 5334 5340 5342 5334 5345 5352 5357 5364 5366 5369 5375 5382 5387 5382 5384 5385 5388 5391 5393 5408 5417 5417 5421 5422 5424 5421 5441 5439 5436 5442 5469 5475 5477 5476 5465
5332 5331 5330 5330 5330 5330 5332 5335 5338 5340 5341 5336 5332 5331 5323 5320 5331 5345 5353 5353 5353 5357 5357 5366 5363 5364 5375 5373 5379 5389 5397 5403 5408 5419 5421 5424 5425 5425 5439 5438 5435 5470 5483 5481 5475 5482 5471
5325 5325 5325 5325 5326 5325 5326 5329 5330 5331 5331 5328 5325 5323 5309 5295 5333 5343 5339 5338 5341 5341 5342 5347 5350 5355 5352 5355 5348 5357 5383 5405 5422 5426 5430 5429 5427 5428 5431 5436 5442 5466 5478 5461 5456 5472 5481
5320 5320 5320 5321 5320 5319 5320 5321 5322 5322 5322 5321 5318 5318 5310 5298 5313 5332 5328 5328 5319 5319 5324 5341 5344 5348 5347 5335 5324 5333 5364 5396 5411 5422 5437 5425 5426 5422 5416 5411 5407 5451 5471 5470 5464 5446 5481
5314 5314 5314 5314 5313 5313 5313 5312 5313 5313 5313 5313 5314 5311 5305 5303 5311 5319 5312 5311 5318 5316 5304 5322 5336 5342 5338 5337 5349 5332 5368 5402 5398 5413 5416 5421 5422 5428 5424 5422 5431 5454 5462 5463 5440 5450 5470
5310 5309 5308 5308 5308 5308 5307 5308 5308 5309 5308 5306 5306 5303 5298 5302 5310 5316 5317 5313 5311 5310 5300 5311 5307 5313 5305 5331 5346 5347 5350 5385 5397 5406 5412 5424 5423 5418 5422 5420 5422 5456 5456 5448 5448 5458 5462
5307 5308 5304 5305 5305 5305 5305 5305 5304 5304 5302 5301 5298 5293 5291 5290 5305 5306 5307 5310 5308 5309 5303 5303 5306 5306 5316 5321 5324 5336 5359 5366 5397 5403 5403 5412 5415 5409 5420 5430 5441 5445 5450 5455 5449 5445 5447